Wind_Speed
92 90 89 87 85 84 83 82 81 81 80 78 76 75 73 72 71 69 67 66 64 63 61 60 58 57 57 56 56 54 52 50 48 46 43 39 39 38 35 33 32 31 29 27 27 25 33 46 49 47 46 42 42 40 40 41 41 41 40 38 36 36 35 35 33 30 29 28 27 27 26 25 24 26 26 24 23 22 20 19 18 17 16 14 13 12 11 11
94 93 91 89 87 86 84 83 83 82 80 78 77 76 75 74 73 71 69 68 66 65 63 61 59 59 58 58 57 55 54 52 50 47 43 42 42 40 37 35 33 33 31 28 27 25 29 44 52 48 49 47 44 42 41 41 42 42 41 38 37 37 36 36 35 33 31 29 29 29 28 27 26 26 25 24 24 22 20 19 18 17 15 14 14 13 12 11
96 95 93 90 88 88 83 80 83 84 79 78 79 78 77 76 75 73 72 70 68 66 64 62 61 60 59 59 59 58 57 55 52 47 44 44 44 43 40 37 35 34 33 29 27 26 27 39 51 51 51 50 45 43 44 42 42 42 41 38 37 38 38 38 37 35 33 32 32 30 29 29 27 26 25 24 24 22 20 20 19 18 17 16 15 13 13 12
96 95 94 92 90 89 83 77 81 85 81 76 77 79 79 78 77 75 74 72 71 68 66 64 62 61 61 60 61 60 59 57 53 47 45 46 45 45 43 39 36 35 35 31 27 28 28 33 45 52 53 52 48 44 45 45 43 43 42 38 38 40 39 39 38 37 35 33 33 32 31 29 27 27 26 25 23 21 21 21 21 20 18 17 15 14 13 13
95 94 94 92 91 90 85 77 74 81 82 75 74 78 79 79 78 77 76 74 72 70 67 66 64 63 63 62 62 62 61 59 54 50 48 46 47 47 45 41 37 36 36 32 28 29 30 31 38 50 53 52 51 45 43 46 45 43 42 39 40 42 41 40 39 38 37 35 35 33 31 30 29 28 26 25 23 23 24 23 21 20 18 16 14 13 13 13
94 93 92 91 91 89 87 80 72 75 80 76 73 75 78 78 79 79 77 75 73 71 69 66 65 63 63 63 62 62 62 60 55 54 53 47 47 50 47 44 40 38 37 35 31 30 32 32 35 46 53 52 51 48 44 45 46 43 42 42 43 43 42 41 41 40 38 37 36 35 33 32 30 28 28 27 26 26 25 22 21 20 17 15 14 12 12 13
92 91 90 89 89 87 86 83 76 75 77 74 72 74 77 78 79 80 77 76 74 72 70 67 64 62 62 63 63 64 63 62 58 57 56 50 47 50 50 47 43 41 40 38 34 32 33 33 34 41 51 54 51 51 47 44 47 45 42 45 46 44 44 43 42 41 39 38 38 37 35 33 32 31 31 29 28 27 24 22 22 19 16 15 14 14 13 13
90 89 88 87 86 85 84 82 77 75 73 71 71 73 76 77 77 80 78 75 74 72 70 66 63 63 63 63 62 64 64 62 60 59 57 54 51 51 51 49 45 43 42 40 37 35 35 35 35 37 45 54 53 51 49 45 45 46 44 46 48 46 47 45 43 43 41 40 40 38 35 34 35 34 31 30 29 28 26 25 23 20 18 17 16 15 14 14
88 87 86 84 84 83 82 81 76 74 72 67 69 71 71 74 75 77 78 75 73 73 69 65 63 65 66 63 61 62 61 60 60 59 58 57 55 52 51 49 45 43 42 41 39 38 37 35 37 37 39 50 55 53 51 47 44 47 48 48 51 49 49 48 45 45 43 42 41 39 38 38 37 35 32 31 31 29 28 26 24 22 20 20 18 16 15 15
86 85 85 83 82 80 80 81 75 74 75 64 63 70 67 67 70 72 76 76 74 72 69 65 64 67 67 65 64 61 57 59 60 60 61 60 58 55 53 50 47 44 43 42 41 39 38 36 37 38 38 43 54 54 52 49 44 47 50 49 52 51 51 49 47 46 45 44 43 41 41 40 39 36 33 32 31 30 29 28 26 24 23 22 20 18 17 16
84 84 83 82 81 78 79 82 75 73 79 67 56 66 68 64 65 67 71 73 73 72 68 65 65 67 67 65 65 60 54 57 61 62 62 62 61 58 54 51 49 46 44 43 42 40 40 39 37 38 39 40 49 55 53 51 47 47 51 51 52 53 52 51 48 47 47 45 44 43 43 42 40 36 34 34 33 33 32 30 29 27 26 23 22 20 19 18
82 82 82 81 80 78 77 82 78 72 79 74 59 62 69 65 64 63 65 68 70 71 67 65 65 65 65 65 63 60 58 58 59 61 62 62 61 59 56 53 49 47 45 43 41 41 42 42 38 38 41 39 44 53 53 53 50 48 51 53 52 53 54 52 50 49 48 47 46 44 44 43 38 35 36 36 36 35 34 33 31 30 27 25 24 22 21 20
79 80 80 79 78 78 77 81 82 71 70 73 67 65 67 66 65 63 62 63 66 69 68 66 65 64 64 64 62 62 64 63 59 59 61 63 62 60 59 54 50 48 47 44 42 43 44 43 40 39 41 40 41 48 52 55 52 49 50 53 53 53 55 54 52 51 51 50 48 46 45 42 37 36 39 39 38 37 36 35 34 32 30 28 26 25 23 21
77 77 78 78 76 78 78 80 84 73 63 64 69 71 67 65 64 63 62 60 61 64 66 68 67 66 64 61 60 64 68 67 63 59 60 62 61 59 60 57 52 51 49 48 48 48 47 45 43 42 42 42 41 41 48 56 54 50 50 50 51 52 54 55 54 53 53 53 51 49 47 43 39 41 43 41 39 38 37 36 35 33 32 30 28 27 26 23
75 76 76 76 75 76 78 80 83 80 70 60 63 71 68 66 64 62 62 59 59 61 61 67 70 69 67 62 62 66 69 69 66 61 59 60 58 55 57 57 53 52 51 51 51 50 49 46 44 44 42 43 43 38 41 53 55 54 52 48 47 48 51 55 56 54 54 54 53 52 49 45 44 45 45 43 40 38 37 37 36 34 32 31 30 29 28 26
72 74 75 75 74 75 77 79 80 84 82 63 56 65 64 65 65 62 61 58 58 60 60 64 68 70 68 64 65 68 68 69 69 64 59 59 59 54 54 56 55 55 55 53 50 49 49 47 45 46 43 41 43 38 38 47 54 55 55 51 48 47 50 55 57 56 56 56 55 54 51 46 46 47 45 44 42 40 39 37 36 35 33 33 32 31 30 28
69 71 73 74 72 73 75 79 78 83 89 72 58 62 61 62 63 61 60 58 60 61 61 63 64 67 69 67 66 67 66 67 70 68 63 61 61 58 55 56 58 58 58 54 50 49 49 49 47 46 43 40 42 40 37 41 48 54 55 54 52 49 50 55 56 56 56 57 56 55 52 48 47 47 45 44 44 42 39 37 36 35 35 34 34 33 32 29
67 69 71 72 71 72 73 77 78 80 90 84 67 61 63 63 62 63 60 61 65 64 65 68 65 65 69 68 65 63 64 66 68 69 66 63 63 62 56 55 59 59 58 56 52 50 49 49 48 46 43 40 40 42 39 36 38 47 53 54 53 51 51 54 55 56 57 57 57 56 53 48 47 47 46 44 45 44 41 40 39 37 36 35 35 34 33 30
66 68 70 70 70 71 72 75 77 79 86 91 78 62 63 67 64 66 65 67 72 69 70 74 72 69 68 66 62 60 64 66 67 68 66 64 63 64 58 54 56 56 59 58 53 51 50 50 49 46 41 38 38 40 40 36 33 36 45 50 51 51 52 52 54 56 58 59 58 57 52 47 46 47 47 45 44 44 44 43 42 39 37 36 35 34 34 32
66 68 69 70 70 70 72 74 76 78 81 89 87 70 66 73 74 73 71 71 71 68 69 71 71 72 67 61 59 59 64 67 67 66 64 63 63 65 62 58 56 56 58 58 54 50 50 49 47 42 37 35 35 36 37 37 35 33 38 46 49 51 52 51 54 57 58 60 60 58 53 48 48 49 49 48 46 46 46 44 43 40 39 38 37 36 35 33
66 68 69 69 69 69 71 73 74 77 79 84 87 77 73 79 78 73 71 72 68 64 66 66 66 68 64 59 58 58 62 67 68 65 62 61 62 64 64 62 60 59 58 58 55 51 49 48 43 39 36 35 35 35 34 36 37 34 35 43 48 50 52 52 54 57 58 60 61 60 56 51 50 51 51 51 49 48 46 44 43 42 41 40 38 37 36 34
65 66 67 67 68 70 71 73 74 76 79 83 85 80 74 76 76 68 66 67 64 63 66 66 64 64 62 60 60 60 61 64 67 65 63 61 61 63 64 64 63 60 57 57 56 53 50 46 41 38 38 36 36 35 35 36 38 36 33 40 47 49 52 53 54 56 58 60 61 61 59 53 51 53 54 53 51 49 47 45 44 43 43 41 38 36 36 36
62 63 64 65 66 70 72 73 75 77 82 86 87 82 71 68 71 69 67 66 62 64 69 68 66 65 63 63 64 64 62 63 65 63 62 62 60 61 63 64 64 61 57 56 55 52 48 44 40 39 38 36 35 35 35 36 37 38 34 36 44 49 51 53 54 55 58 60 61 62 60 55 54 56 56 55 53 49 48 47 45 44 43 40 38 37 38 37
60 60 62 63 66 72 74 76 78 81 85 88 90 86 70 61 66 67 66 68 66 68 71 70 68 67 66 65 64 65 63 63 64 61 59 59 59 60 61 62 63 61 56 54 53 51 45 41 39 39 37 35 34 34 35 34 35 38 36 33 39 48 51 52 54 55 58 60 61 62 61 58 56 58 57 54 53 51 49 48 45 44 42 39 39 39 38 37
60 60 61 64 69 75 79 82 85 83 84 88 91 89 74 62 65 64 61 66 69 71 72 71 70 69 68 66 64 63 62 61 62 60 57 54 55 57 58 60 62 59 56 54 53 50 46 42 39 39 37 35 35 34 34 33 33 36 36 32 34 44 51 53 56 57 59 61 62 62 63 60 57 58 56 53 53 51 49 48 45 43 42 41 41 40 39 37
60 61 62 66 72 80 87 89 85 81 84 89 91 91 78 65 69 69 64 68 73 74 74 73 71 70 69 69 66 63 61 61 60 59 57 54 52 53 55 58 59 57 55 53 51 49 46 43 41 39 37 36 35 33 33 33 33 34 35 33 31 38 49 55 57 59 61 62 62 62 63 62 58 57 56 53 54 52 50 49 45 43 43 42 41 40 39 37
60 61 62 68 76 87 92 87 82 82 87 89 90 90 78 67 71 74 72 76 78 76 75 75 74 70 68 67 65 62 62 63 61 59 57 55 54 53 53 55 55 55 54 53 51 48 46 44 42 40 38 37 35 32 31 32 33 33 33 34 32 34 45 56 59 61 62 62 62 62 63 64 61 59 58 56 55 53 51 49 46 44 44 42 41 40 39 38
58 59 62 69 78 87 87 81 80 84 84 84 88 88 76 69 74 76 78 84 82 78 78 78 75 71 67 66 65 62 60 62 62 59 57 55 55 55 53 53 52 51 51 52 49 46 44 42 41 40 38 36 32 30 30 30 31 31 31 33 33 33 42 54 60 62 63 64 64 63 63 65 64 61 60 58 56 55 52 50 47 45 44 43 42 41 40 38
57 58 61 69 78 86 87 83 80 78 78 82 86 86 76 72 78 80 83 87 83 80 80 79 77 74 70 67 66 63 60 61 61 58 57 56 56 55 54 53 51 50 50 48 45 44 42 41 40 39 36 33 30 29 29 29 29 28 29 31 32 33 38 49 59 63 65 66 65 64 65 66 65 63 61 61 59 56 52 50 48 46 44 44 42 41 40 39
57 57 60 70 80 88 92 89 82 76 79 85 88 86 77 75 84 86 86 87 83 81 80 79 78 76 74 70 66 64 61 60 60 58 57 56 55 55 54 53 51 51 52 49 46 44 41 40 40 38 36 33 31 30 29 29 29 28 29 30 31 33 35 42 54 63 67 66 63 64 65 66 66 64 62 62 60 57 53 49 49 47 44 43 42 41 40 40
57 55 60 72 82 90 93 90 88 85 85 90 90 86 78 77 87 92 89 86 83 81 81 80 79 76 74 71 67 65 62 60 61 60 58 56 56 57 58 56 54 53 54 52 49 46 43 42 41 38 36 35 34 33 31 31 30 30 30 30 31 33 34 38 46 57 65 65 62 64 66 66 65 62 62 62 60 57 54 50 48 47 44 42 42 41 41 41
57 55 60 71 79 86 89 87 87 88 91 94 90 85 80 80 90 95 91 87 83 82 83 81 80 78 73 69 67 67 65 62 61 60 58 56 55 55 56 56 56 55 55 53 51 48 46 44 42 40 38 36 35 34 33 33 32 32 31 31 32 34 36 35 38 45 54 58 62 64 65 66 66 62 61 62 61 57 54 51 49 47 44 42 41 41 41 41
55 55 58 69 76 82 88 88 85 88 94 94 87 83 83 85 93 97 91 87 83 81 81 79 78 77 73 69 67 67 66 64 62 60 58 56 54 53 53 54 54 54 53 52 52 50 48 46 43 41 39 37 36 34 33 33 32 32 31 31 32 33 34 32 30 32 36 45 55 62 65 65 65 64 61 59 59 57 53 50 49 46 44 42 41 41 41 41
54 55 60 69 73 79 87 90 88 90 92 89 84 84 87 89 94 94 89 86 83 79 79 79 77 75 73 70 67 65 64 63 62 61 60 59 58 56 54 53 52 52 50 49 50 50 49 47 44 42 40 38 37 34 32 31 29 28 27 27 28 29 28 26 25 25 25 32 43 53 60 63 63 65 62 56 56 57 53 49 47 45 43 42 41 41 41 42
53 55 62 70 73 77 83 89 92 92 87 81 80 83 88 92 94 91 88 87 83 80 80 79 77 76 74 72 68 66 65 63 61 61 61 60 59 57 54 51 50 51 50 48 47 47 46 43 41 40 39 37 36 34 32 31 29 28 27 27 27 26 26 25 25 25 26 30 35 40 48 54 59 63 64 58 54 55 54 50 46 43 41 41 41 41 41 41
53 58 64 69 73 77 82 88 94 95 89 81 78 81 83 89 90 85 85 87 83 82 81 80 79 78 75 73 71 69 65 62 61 60 59 58 57 55 53 52 50 50 49 48 46 45 44 42 40 39 38 36 34 32 32 31 29 29 28 27 25 25 26 26 27 27 28 30 29 30 34 41 50 58 62 61 55 52 53 53 50 46 43 41 41 41 41 41
49 56 64 67 70 78 83 87 90 92 88 81 79 80 77 82 85 78 79 85 83 83 83 82 81 80 77 75 74 72 68 63 61 60 58 57 56 55 53 52 50 49 48 46 45 45 43 42 42 40 38 37 35 34 33 32 31 29 28 25 25 26 27 27 28 27 28 29 28 28 29 32 40 48 53 57 56 53 52 53 52 50 46 43 41 41 42 42
51 51 61 67 70 77 83 85 85 83 81 76 74 77 75 79 85 80 80 87 87 87 87 84 82 80 78 76 73 72 70 67 64 60 58 56 55 53 52 51 49 48 47 45 45 45 43 41 42 41 39 37 36 35 34 33 31 29 27 26 26 27 27 28 28 27 27 28 29 29 30 30 31 35 40 47 52 52 51 51 52 52 49 46 44 43 43 42
63 54 56 64 68 75 82 83 80 77 77 74 72 77 79 82 86 83 83 89 91 90 87 83 81 78 75 73 70 70 70 68 66 62 59 56 53 50 50 49 49 48 47 45 45 45 43 42 40 40 39 37 36 35 34 32 31 30 29 29 28 28 28 28 28 27 27 28 28 30 32 31 27 26 30 37 44 48 50 50 51 52 52 50 48 46 45 45
71 60 55 62 66 72 76 77 77 77 77 74 72 77 80 80 84 83 82 86 89 88 85 82 79 76 72 70 70 69 69 68 66 62 60 56 53 50 50 50 48 47 47 47 47 46 44 43 40 39 39 38 36 34 33 32 31 31 30 29 28 28 28 28 27 27 27 28 29 31 32 30 26 25 26 29 36 42 47 49 49 51 51 50 49 47 47 47
74 65 60 64 67 71 73 74 77 78 75 72 71 75 77 78 83 85 83 85 86 85 83 81 80 76 72 70 71 70 69 67 66 63 61 58 55 53 51 50 49 49 50 49 49 47 45 44 42 41 39 38 36 34 33 33 32 31 30 29 28 27 27 28 28 27 28 29 28 30 31 26 24 26 26 26 29 33 39 44 46 49 51 51 50 48 47 47
77 72 66 67 69 75 76 74 75 74 73 73 72 71 73 79 85 86 84 85 86 85 84 83 81 77 73 70 70 70 69 67 65 64 62 59 57 54 52 51 51 51 51 50 49 49 47 46 44 42 40 38 37 35 34 33 33 33 32 32 31 31 30 30 29 27 27 28 26 28 29 23 19 24 26 27 28 28 30 35 38 42 46 50 51 50 48 48
76 73 68 67 68 74 77 73 73 75 75 74 70 67 71 79 85 87 87 87 86 87 86 84 81 77 72 69 69 69 69 67 64 64 62 60 58 56 54 54 53 54 54 53 51 50 49 48 47 45 43 40 38 37 36 35 35 34 33 33 34 33 32 31 29 27 26 24 23 25 27 21 16 19 25 27 28 28 28 30 32 35 39 44 48 50 50 49
74 71 68 68 67 70 75 74 74 78 78 74 71 71 74 82 88 88 88 87 86 87 86 85 81 76 71 68 66 65 66 65 64 63 62 60 59 58 57 55 54 54 53 52 50 50 50 50 49 48 47 45 43 41 39 38 37 36 36 36 36 34 33 31 29 27 23 20 20 24 26 22 15 17 24 28 29 29 29 30 30 32 36 39 43 47 48 48
70 73 70 70 69 69 74 74 72 76 76 71 70 71 74 83 88 87 85 85 85 85 86 84 80 74 70 67 65 62 62 63 63 62 61 60 59 58 58 57 55 54 51 49 49 49 49 49 49 49 49 47 44 40 37 37 38 38 36 35 33 31 29 27 25 25 22 20 23 24 25 22 17 19 26 28 28 29 30 30 30 31 34 37 38 42 45 46
68 74 74 75 74 72 75 75 73 74 73 69 68 69 73 82 88 86 86 86 85 85 85 83 80 75 71 69 67 64 62 61 62 61 60 59 59 58 57 55 54 53 51 50 50 48 47 47 47 45 44 41 37 33 31 31 32 31 28 27 27 25 25 25 25 25 23 23 25 24 23 22 20 22 27 27 26 28 30 30 31 32 34 34 35 38 40 43
69 73 75 78 79 77 77 79 76 71 68 66 66 66 70 81 89 88 88 87 86 86 85 83 80 76 73 71 68 65 63 61 61 59 58 57 56 56 56 55 53 52 50 50 49 48 47 47 46 43 40 38 35 33 30 28 27 27 25 26 27 27 29 29 28 26 25 26 24 20 19 22 23 25 27 25 24 27 30 31 31 33 35 35 35 36 37 39
72 74 72 73 76 77 76 78 76 70 65 63 64 65 70 81 88 88 87 86 85 86 85 83 81 77 73 70 68 67 65 64 62 60 58 57 55 54 53 53 52 51 49 48 48 46 45 45 43 41 40 39 38 38 36 33 32 32 32 32 33 35 34 32 29 28 29 27 23 19 20 23 25 26 27 27 24 25 29 31 31 34 36 38 38 39 39 41
72 76 76 74 74 72 69 71 73 70 66 63 64 67 72 81 86 84 83 83 84 86 85 82 80 77 73 69 68 68 68 67 65 62 60 58 57 56 55 54 53 52 50 49 48 46 45 44 43 41 40 40 40 40 39 38 38 39 39 39 39 38 35 32 31 31 31 27 24 23 23 23 24 25 26 27 25 24 27 30 31 33 35 36 38 40 42 43
69 74 78 78 76 72 69 70 72 71 67 65 65 66 69 77 84 84 81 80 80 81 82 80 78 77 73 70 69 68 67 64 62 61 60 59 59 58 58 57 56 55 53 52 50 48 47 47 46 44 43 42 42 42 42 42 42 43 44 43 39 36 35 34 32 32 31 26 23 25 25 24 24 22 23 26 28 27 28 29 31 33 35 37 38 39 41 43
67 70 73 75 75 72 69 70 72 71 67 64 63 63 66 74 81 82 80 78 76 75 75 76 77 76 74 71 69 67 65 63 60 57 57 57 57 57 58 58 57 56 56 55 54 52 51 51 50 47 47 47 45 44 45 44 44 47 47 42 38 37 35 34 32 32 30 26 25 28 26 22 20 21 24 29 33 32 31 31 33 35 37 39 40 41 42 42
63 67 71 74 73 69 66 65 67 68 65 59 57 58 63 70 76 80 80 79 77 75 73 74 76 76 74 72 70 67 64 62 57 53 52 50 49 49 51 52 52 52 52 52 53 53 52 51 49 47 47 46 45 45 44 44 46 48 44 38 36 36 34 34 34 33 31 29 29 29 26 22 23 27 30 33 35 35 34 34 36 37 38 40 41 41 42 41
Wind_Direction
214 214 215 215 216 215 214 214 214 215 215 214 213 213 213 215 216 217 218 218 219 220 219 219 218 218 218 217 217 217 218 217 217 220 220 220 222 223 225 224 224 227 228 233 232 236 236 220 211 211 211 215 217 218 219 215 214 216 217 216 215 216 215 214 213 208 207 207 208 207 203 202 199 197 193 187 188 184 180 184 185 187 188 189 194 196 199 198
215 214 215 215 215 215 214 214 214 215 215 215 214 213 213 214 215 217 218 219 219 220 219 219 219 218 218 218 217 217 218 217 217 221 221 220 222 222 223 222 221 224 225 230 232 235 240 222 211 210 211 214 218 218 220 219 216 216 217 217 216 217 215 213 212 208 207 208 210 207 203 203 200 199 194 189 191 184 182 186 188 190 188 192 199 196 200 202
215 215 215 215 215 214 213 214 214 214 215 216 215 214 214 214 215 216 218 219 219 220 219 219 219 218 219 219 218 217 218 217 218 219 219 220 223 222 223 223 220 221 224 226 228 232 239 225 213 210 212 213 217 218 220 221 218 215 217 216 216 218 216 214 211 209 207 208 211 207 205 205 201 200 196 193 194 186 186 190 190 192 189 194 200 197 200 202
216 216 215 215 214 213 213 213 213 214 214 215 216 215 214 214 215 216 217 219 220 220 220 219 219 218 218 219 218 217 217 218 218 217 218 221 223 224 225 223 219 219 224 223 223 229 237 233 220 213 213 213 214 217 220 222 221 218 216 215 217 219 217 215 212 210 208 207 211 208 206 206 203 201 197 197 196 189 192 194 194 196 194 197 201 199 201 204
217 217 217 216 214 213 212 211 212 214 213 214 216 216 215 215 215 216 216 219 220 220 221 220 219 218 218 219 219 217 217 218 216 215 217 220 223 225 226 224 218 217 222 223 222 228 234 239 231 219 215 214 214 217 220 222 222 219 215 214 218 219 218 217 213 212 210 207 211 210 207 207 205 202 199 199 198 195 198 197 198 199 197 199 204 206 206 208
218 217 217 217 215 213 212 210 210 212 212 213 216 217 216 215 215 216 217 218 220 220 221 221 220 219 219 219 219 218 217 217 215 214 216 218 223 225 226 224 219 216 220 222 222 226 231 237 237 225 218 216 214 217 221 222 222 219 214 215 219 219 219 217 214 214 212 208 211 212 209 208 205 202 201 202 202 201 201 201 205 204 199 199 204 209 210 213
220 218 218 217 216 215 212 210 210 211 210 211 215 217 218 217 216 216 217 219 219 220 221 221 220 219 219 219 219 219 218 216 214 215 216 215 220 223 225 224 220 217 218 219 220 225 230 234 237 231 223 220 217 218 222 224 223 220 215 216 219 219 219 218 214 214 213 209 212 213 211 209 207 205 202 203 206 205 202 204 209 209 204 203 205 209 210 213
222 221 219 218 217 215 212 210 210 212 211 210 213 217 219 219 218 218 218 219 220 221 221 221 220 219 219 218 219 220 219 218 215 216 216 215 218 221 222 224 222 219 218 217 218 223 228 231 235 235 229 223 220 219 222 226 226 221 216 217 219 219 219 218 214 214 213 210 212 214 213 212 210 207 203 205 208 206 205 207 209 209 209 210 210 213 213 214
224 223 221 218 217 215 212 209 209 210 210 210 214 216 219 222 221 220 219 218 220 221 221 221 220 220 219 216 217 220 219 220 219 217 217 217 219 221 222 224 224 222 219 217 218 222 227 230 232 236 234 227 222 222 221 225 228 221 217 218 220 220 220 218 214 213 213 211 212 213 213 214 212 208 205 208 210 208 209 211 212 212 213 215 214 216 218 218
225 224 223 220 218 216 212 210 209 210 210 210 216 217 216 221 223 222 221 220 220 221 221 221 220 221 220 216 216 217 216 219 221 218 217 218 219 220 222 223 222 221 220 219 219 224 227 229 231 233 238 232 224 224 223 225 228 222 218 219 219 220 221 219 214 213 213 213 212 213 214 215 214 209 207 209 211 211 213 215 216 215 216 220 220 219 221 222
226 225 224 222 219 216 213 209 207 210 211 207 212 218 217 218 222 223 223 222 222 222 222 222 222 223 222 219 216 215 215 218 221 219 217 218 218 219 220 223 224 221 220 220 220 225 228 229 231 233 238 237 226 224 225 225 226 222 219 220 219 220 222 221 216 213 213 214 213 213 214 216 215 211 210 211 212 214 216 217 218 218 218 222 226 225 224 226
227 226 225 223 220 216 212 208 206 208 209 206 208 217 220 220 223 225 224 223 223 223 223 223 224 224 223 221 216 215 215 217 219 220 219 218 218 218 219 221 226 224 220 220 221 226 230 229 231 233 237 239 229 223 222 223 224 222 221 222 221 221 223 222 217 213 212 214 215 214 214 217 216 214 213 212 213 216 218 219 221 222 221 223 228 230 229 229
227 226 225 224 222 218 213 208 206 205 206 209 212 216 220 221 222 225 225 224 224 223 223 223 224 226 224 221 216 215 216 217 218 219 218 218 217 218 218 220 224 224 221 221 223 227 228 228 230 232 235 237 232 224 220 221 223 222 222 224 224 224 224 223 219 214 212 214 214 214 214 216 216 217 216 214 214 216 218 221 222 223 224 225 227 231 232 231
228 227 226 225 223 219 215 210 207 205 203 207 214 216 218 218 218 222 223 222 222 222 222 223 223 224 224 220 216 216 217 218 218 218 218 217 217 218 218 219 222 223 222 221 222 224 225 226 228 230 234 235 234 230 223 221 222 222 223 225 227 228 227 224 221 216 214 214 214 214 214 213 215 218 217 216 217 217 219 222 223 225 226 227 228 230 233 232
229 227 225 224 223 220 217 213 209 207 204 201 207 213 214 215 216 219 221 220 221 219 218 222 224 223 223 220 217 217 217 218 218 218 218 217 217 218 219 220 221 221 221 221 222 222 223 225 228 229 232 235 236 237 231 224 223 224 225 226 228 231 229 225 221 217 215 214 214 215 213 211 215 219 218 217 218 218 219 222 224 226 227 229 231 231 233 233
229 227 225 224 223 220 218 215 211 207 205 201 202 207 210 214 216 217 220 218 219 219 214 218 224 224 223 220 218 218 217 217 218 219 218 216 216 217 218 221 221 220 221 221 221 222 223 225 228 228 231 236 236 240 239 228 224 225 227 228 230 232 231 226 222 219 217 215 215 215 213 211 215 219 219 217 218 220 220 221 223 225 226 228 231 233 233 234
228 227 226 223 221 220 218 215 212 207 206 204 203 205 207 212 214 216 218 213 215 217 212 214 220 222 222 219 219 219 217 218 219 220 218 215 215 215 217 218 219 219 221 221 221 222 224 225 228 229 231 237 237 239 239 230 226 226 227 229 230 232 232 229 224 219 218 217 216 216 213 212 216 219 220 218 218 221 221 221 223 224 225 227 230 234 235 235
225 225 224 223 220 219 217 215 212 207 206 207 207 208 209 211 212 214 212 205 208 212 209 211 214 215 218 219 220 220 218 219 220 221 220 217 215 215 217 218 219 220 221 220 220 223 225 226 228 230 232 236 238 239 238 233 231 230 229 229 229 229 230 231 227 220 219 219 218 218 214 212 216 220 220 219 219 221 222 222 222 223 226 227 229 233 235 235
222 223 222 221 219 217 216 214 212 208 206 208 210 211 213 212 211 213 208 202 206 208 206 210 213 216 219 220 222 220 217 219 221 222 222 219 218 216 217 220 221 222 222 221 219 222 225 226 228 231 234 237 241 241 240 238 238 235 230 228 228 227 227 230 228 221 219 220 220 219 216 212 216 220 222 221 220 222 223 223 223 224 227 228 229 232 235 236
220 220 219 218 216 214 214 212 211 208 206 208 209 210 212 210 208 207 201 199 207 210 209 212 215 219 221 219 219 220 217 217 220 222 222 220 219 218 218 219 221 222 222 221 221 224 226 227 229 232 236 239 241 242 242 240 238 236 230 226 226 225 225 227 226 223 221 221 220 220 217 213 215 220 222 222 221 222 224 224 223 226 228 228 228 230 233 234
217 217 216 216 213 211 211 210 209 206 204 206 207 208 212 214 215 211 201 199 205 208 209 211 214 217 217 214 215 218 218 218 219 220 221 220 219 218 219 220 222 223 222 220 220 223 225 226 228 231 233 235 238 239 239 239 238 237 232 225 224 223 223 225 224 223 223 222 221 221 219 214 215 220 222 223 222 222 224 224 225 228 229 229 229 229 231 233
214 214 213 212 210 208 207 207 206 204 202 203 204 207 212 217 221 220 214 210 209 208 208 208 211 214 214 212 213 216 218 220 221 221 220 220 219 219 220 221 223 225 225 222 221 221 223 224 225 228 230 231 233 234 235 236 236 237 236 227 224 224 223 224 224 224 225 223 221 221 220 215 215 220 223 223 222 223 224 224 226 229 230 231 230 231 232 233
209 210 210 208 206 203 202 202 202 202 201 201 202 205 209 213 212 209 209 213 214 210 208 208 210 213 212 211 213 214 216 219 222 224 223 222 221 221 222 223 225 227 226 224 223 224 224 223 223 226 228 229 231 232 233 235 234 235 237 231 225 225 225 225 225 224 225 224 221 221 220 216 214 220 223 224 223 223 225 225 227 230 231 232 232 232 234 234
204 205 205 203 200 197 196 197 198 199 200 200 202 205 206 206 204 201 200 205 211 210 207 207 209 212 211 211 213 213 213 217 221 223 224 224 224 223 223 224 225 227 226 224 224 224 223 222 223 226 228 229 230 231 232 234 234 234 237 237 229 226 226 226 224 223 223 224 222 221 221 217 215 219 223 225 224 223 225 227 228 230 231 232 233 233 234 235
199 201 200 198 195 193 191 192 194 196 198 199 201 204 206 201 199 201 204 205 207 208 206 204 205 210 210 207 209 211 211 214 217 219 219 221 224 226 225 224 225 226 225 224 222 219 218 218 220 223 226 227 228 229 231 232 233 233 235 240 237 230 227 226 224 221 221 222 222 221 222 219 216 220 223 226 226 223 225 229 230 231 232 231 233 233 234 233
199 200 198 196 193 189 189 191 192 194 197 199 200 203 206 201 196 201 206 207 207 208 207 204 203 208 209 206 206 208 209 211 213 214 214 215 218 223 225 224 225 225 222 221 220 216 215 215 217 220 222 225 226 227 229 230 231 231 232 237 241 235 229 226 223 221 220 221 222 222 223 221 217 220 223 226 228 225 225 229 231 232 233 232 233 234 234 234
199 200 198 195 192 189 190 189 189 193 196 197 198 202 206 202 196 197 200 203 207 208 207 206 204 206 208 208 208 207 208 210 211 211 212 212 213 216 220 222 224 223 220 219 216 213 213 214 216 219 220 222 224 226 227 228 230 230 231 234 239 239 232 227 223 221 220 220 222 222 223 223 218 219 223 225 228 228 226 228 230 232 233 234 234 235 234 233
198 198 197 195 192 189 188 186 188 193 196 197 197 200 204 201 196 194 194 200 205 205 205 206 204 205 208 207 208 208 210 212 213 212 210 210 211 212 215 217 220 221 221 220 216 212 213 214 215 218 220 223 225 226 226 227 228 228 230 232 237 239 235 229 224 221 220 220 221 221 223 225 221 218 223 226 227 229 228 228 230 230 232 234 234 235 234 232
195 195 196 193 190 187 185 186 189 193 195 195 197 201 201 199 194 192 194 200 204 203 203 204 204 205 208 206 206 207 208 210 212 213 212 210 211 212 213 214 215 216 217 218 215 212 212 213 215 217 218 222 224 225 224 225 225 225 227 231 234 237 237 233 227 223 222 220 220 221 222 226 225 219 221 226 227 229 230 229 230 230 231 234 235 235 235 233
193 192 194 191 189 187 186 187 187 190 193 193 197 199 197 196 194 193 197 199 201 201 201 202 205 206 207 205 205 205 205 207 208 209 211 210 210 211 211 210 211 213 213 212 212 211 211 211 213 216 216 217 219 221 222 222 222 220 221 226 231 235 236 236 232 227 225 224 222 222 222 226 228 222 219 225 228 229 230 230 231 231 230 232 234 235 235 235
192 191 192 190 189 188 186 186 185 186 190 192 196 197 194 196 195 195 199 198 197 200 199 201 204 206 206 205 205 206 205 205 206 207 208 208 209 210 209 207 208 209 209 208 208 208 209 211 213 214 215 216 217 218 219 219 220 219 218 221 227 232 233 234 235 231 230 229 227 224 224 226 230 227 220 223 228 229 230 230 231 232 232 231 233 234 235 236
190 189 191 189 189 189 186 184 184 187 189 190 195 196 194 197 196 196 199 196 196 199 198 200 204 206 206 205 206 209 209 208 207 208 208 208 210 212 212 212 212 213 211 209 208 207 208 211 212 214 215 217 218 218 219 219 218 218 216 218 223 229 232 233 236 236 234 234 231 229 227 228 231 231 223 221 226 229 230 230 230 231 233 232 232 234 235 236
189 187 189 188 188 190 188 183 183 187 188 190 196 197 196 198 197 197 198 194 195 198 198 200 204 207 208 206 206 208 210 211 209 209 208 208 209 211 213 214 214 216 216 213 210 209 208 209 211 214 215 217 219 221 222 224 223 222 220 220 223 229 234 235 238 243 242 240 237 234 233 232 233 234 229 222 224 228 230 231 232 232 233 233 233 234 235 236
187 186 187 187 188 190 190 187 185 185 187 191 196 195 195 200 198 197 196 193 194 198 198 201 203 206 209 209 209 209 209 211 210 209 207 206 206 207 209 211 211 213 214 214 213 212 211 212 213 215 217 218 220 221 223 224 225 226 225 226 229 233 239 242 245 249 251 247 243 239 238 237 236 237 235 228 225 229 231 232 234 235 235 236 235 236 237 237
185 187 187 187 189 190 189 188 186 184 185 189 194 194 195 200 199 196 194 192 193 197 199 201 204 205 207 208 210 211 210 211 209 209 209 207 207 207 207 209 211 212 212 212 214 214 214 216 217 218 218 219 220 220 221 221 222 223 223 225 228 232 236 239 241 241 244 245 243 241 239 240 240 240 240 235 229 230 233 234 235 235 237 238 237 238 239 240
185 187 187 188 189 188 187 188 188 188 188 190 196 199 198 200 200 196 192 192 195 198 198 200 204 206 206 206 207 208 209 209 209 209 209 209 209 209 207 207 209 211 213 213 214 214 214 215 216 218 220 220 220 220 220 221 223 224 225 226 228 230 233 235 237 238 240 242 242 242 240 240 241 242 242 240 236 232 235 237 237 236 236 237 238 239 240 241
187 186 186 188 187 185 185 187 190 193 195 198 201 201 200 201 201 199 195 194 197 200 200 200 203 205 205 205 205 206 206 207 209 210 209 209 209 209 207 205 206 208 211 213 214 214 214 214 214 215 217 218 218 218 218 219 221 224 228 229 228 230 232 234 237 237 239 242 242 242 241 240 241 242 243 243 241 236 235 238 240 240 239 238 239 239 240 242
192 186 184 186 184 184 185 186 191 194 196 201 201 198 199 202 202 200 196 195 197 200 201 202 202 204 206 206 206 207 208 208 209 209 210 210 209 209 209 207 206 206 208 211 213 213 213 213 214 214 214 215 215 216 217 217 219 222 225 226 227 231 234 235 237 239 240 242 243 243 243 241 240 243 244 246 246 243 239 239 243 244 243 243 242 241 241 242
193 187 183 184 182 184 185 185 191 194 197 200 201 199 200 201 202 201 197 196 197 199 201 203 204 203 205 208 209 210 211 212 212 210 210 211 210 209 210 210 208 207 206 209 212 213 213 213 214 215 216 216 215 216 217 217 218 220 221 223 225 229 233 234 237 241 243 244 244 243 243 242 242 245 245 246 248 249 245 242 243 245 247 248 247 246 244 244
188 186 182 181 182 185 184 185 193 197 199 202 203 203 202 202 203 202 199 198 199 201 202 202 205 205 204 206 210 212 213 213 213 213 212 210 209 209 210 210 209 208 207 208 210 212 212 213 214 214 215 217 216 217 219 219 219 220 222 225 227 230 234 236 238 241 244 245 245 247 245 242 243 246 246 245 245 247 248 246 244 245 247 250 251 250 248 247
183 186 181 180 184 185 184 188 194 197 198 200 202 205 204 202 203 202 200 200 200 202 203 203 204 206 205 206 208 210 212 212 211 211 212 210 208 208 210 210 209 209 209 209 209 211 211 212 214 214 215 217 217 217 217 218 219 219 221 224 227 232 234 236 239 241 244 247 249 254 251 243 243 248 248 249 248 246 247 248 246 245 246 249 252 252 251 251
182 185 182 181 185 185 186 192 194 195 198 199 202 206 205 202 202 202 201 200 200 202 204 204 204 205 207 210 210 209 211 212 211 210 210 211 209 208 209 210 210 210 210 210 210 211 210 211 212 213 213 214 216 215 216 218 218 218 219 219 220 223 226 232 236 237 241 246 251 260 258 243 243 253 252 252 254 253 251 250 248 245 244 245 249 251 253 253
182 186 185 186 188 187 191 195 194 196 200 201 203 207 207 204 203 203 202 200 199 202 204 205 205 205 206 210 212 211 210 210 212 213 211 210 208 207 207 209 209 209 210 209 209 210 211 211 211 211 211 212 213 214 214 216 218 219 221 222 222 223 225 229 233 235 240 247 254 263 259 244 243 257 258 257 257 255 255 255 253 250 247 244 244 246 249 251
183 187 189 190 193 193 195 198 197 198 201 201 202 205 206 205 204 204 204 201 200 201 204 205 206 206 206 208 211 213 212 210 211 212 212 210 208 206 206 207 210 211 211 210 210 211 212 213 212 211 211 210 210 213 215 218 222 225 225 224 224 223 224 226 230 234 241 249 254 261 259 252 251 254 256 257 255 252 251 251 252 251 250 247 244 243 244 246
187 189 191 193 196 198 198 198 199 200 200 200 203 206 208 206 205 205 205 203 201 202 204 205 205 205 206 207 210 212 214 214 212 211 211 211 209 208 207 207 209 211 211 212 213 213 214 215 215 215 215 214 216 222 227 230 229 228 228 228 228 227 229 231 231 236 244 245 248 258 264 264 261 254 252 252 251 252 251 250 251 250 250 251 248 246 245 244
192 192 193 195 197 197 196 195 197 200 201 200 203 207 208 206 204 205 205 204 202 203 204 204 204 205 205 206 208 210 212 214 215 213 212 211 210 209 209 209 210 211 211 213 214 215 217 218 218 220 221 221 225 231 236 237 236 235 237 239 239 237 236 234 234 243 251 248 250 262 268 267 265 259 254 250 249 253 254 252 251 249 249 250 249 249 249 247
195 195 196 197 195 195 196 196 197 200 202 202 203 206 207 205 204 203 205 204 203 204 205 204 203 204 205 205 206 208 209 211 213 214 213 212 212 211 211 211 211 213 215 216 216 216 218 218 217 220 222 221 223 225 225 228 231 232 235 235 234 231 229 233 241 250 251 250 258 266 263 262 263 260 258 254 250 251 252 250 248 249 250 249 245 246 247 248
195 197 199 200 198 197 197 198 198 200 203 204 206 206 205 205 205 204 203 203 204 206 205 204 204 205 206 206 207 208 209 209 210 211 212 212 212 213 215 214 214 214 216 219 219 218 220 220 218 220 221 221 221 221 220 220 219 220 222 224 223 223 228 239 248 249 248 254 263 262 256 259 261 260 262 262 253 249 250 252 251 251 253 251 248 244 242 241
194 196 198 200 201 200 198 199 201 203 205 206 208 209 207 206 206 206 205 203 204 206 207 205 204 205 205 206 208 209 210 210 209 209 211 211 211 212 214 215 216 216 217 220 221 221 222 221 220 221 222 222 223 223 223 222 220 219 220 220 222 228 237 245 246 245 248 255 258 255 255 260 261 260 263 263 258 253 251 253 253 251 252 252 251 247 243 240
193 195 197 199 200 200 199 199 202 203 205 206 208 210 211 210 208 207 207 206 205 206 207 207 206 205 205 206 208 210 211 213 213 212 212 211 210 210 212 213 214 216 217 219 220 221 222 223 221 222 222 222 222 223 223 223 223 224 223 223 228 235 242 244 243 245 249 254 257 256 254 256 257 256 256 259 259 255 250 248 248 247 247 247 247 246 244 243
193 193 196 198 198 198 201 202 202 202 204 206 207 209 212 212 210 208 207 208 209 208 207 206 206 206 206 207 209 210 211 214 215 215 215 215 213 212 213 213 213 215 217 218 218 219 220 223 222 222 223 223 221 222 224 224 225 225 226 229 234 239 242 245 247 249 251 253 253 252 255 260 259 251 249 252 253 250 248 246 244 243 243 245 247 247 246 246
195 192 194 197 196 197 200 203 204 205 205 207 208 209 210 211 212 212 209 208 209 211 209 206 205 205 207 209 209 210 211 213 214 214 215 218 218 218 219 219 218 219 220 221 222 221 221 222 223 224 226 225 224 225 226 227 227 227 230 236 240 242 244 246 247 249 253 253 251 252 256 257 249 243 243 246 249 250 249 249 249 249 248 249 251 251 251 250
Height
5650 5657 5664 5671 5676 5682 5688 5694 5699 5703 5708 5713 5716 5721 5725 5730 5735 5739 5744 5748 5752 5756 5761 5765 5770 5774 5778 5781 5785 5788 5791 5794 5797 5800 5804 5809 5811 5811 5815 5818 5820 5822 5824 5826 5829 5831 5834 5835 5837 5840 5843 5845 5848 5850 5851 5853 5855 5857 5859 5861 5863 5864 5866 5868 5871 5873 5874 5876 5878 5879 5881 5883 5883 5884 5885 5887 5889 5890 5891 5892 5894 5895 5896 5898 5899 5900 5901 5901
5641 5648 5655 5662 5668 5675 5682 5688 5693 5697 5703 5707 5711 5715 5720 5725 5730 5734 5738 5742 5747 5751 5756 5761 5765 5769 5773 5777 5781 5784 5787 5791 5793 5797 5803 5806 5807 5808 5811 5815 5818 5820 5822 5824 5826 5828 5831 5832 5834 5837 5840 5842 5845 5847 5849 5850 5852 5855 5857 5860 5862 5863 5865 5866 5868 5871 5873 5874 5875 5877 5879 5880 5882 5883 5885 5887 5888 5890 5891 5892 5893 5894 5896 5897 5898 5899 5900 5901
5632 5639 5646 5653 5661 5669 5676 5680 5684 5691 5697 5701 5705 5710 5715 5720 5724 5729 5733 5737 5741 5746 5751 5756 5760 5765 5769 5773 5776 5780 5783 5786 5790 5795 5800 5801 5803 5805 5808 5812 5815 5818 5819 5822 5824 5825 5827 5829 5832 5834 5836 5838 5841 5844 5846 5848 5850 5853 5855 5859 5861 5861 5863 5864 5866 5868 5870 5872 5873 5875 5877 5878 5881 5883 5884 5886 5887 5889 5890 5891 5892 5893 5894 5895 5897 5898 5899 5900
5623 5630 5637 5645 5653 5661 5668 5672 5678 5684 5690 5695 5699 5704 5709 5714 5718 5723 5727 5731 5736 5741 5746 5750 5755 5760 5763 5767 5771 5775 5778 5781 5788 5794 5796 5797 5800 5802 5805 5809 5813 5815 5817 5820 5822 5822 5824 5827 5830 5831 5832 5835 5838 5841 5844 5846 5848 5850 5854 5858 5859 5859 5861 5862 5865 5867 5868 5870 5872 5874 5876 5878 5880 5882 5883 5885 5887 5890 5889 5889 5890 5891 5893 5894 5896 5897 5898 5899
5615 5622 5629 5636 5645 5654 5661 5668 5675 5679 5684 5690 5693 5697 5703 5708 5713 5717 5722 5726 5731 5736 5740 5745 5750 5754 5758 5762 5766 5770 5774 5778 5786 5790 5790 5794 5797 5799 5802 5806 5810 5812 5814 5817 5819 5820 5820 5824 5827 5827 5829 5832 5836 5839 5841 5843 5845 5848 5852 5856 5855 5856 5859 5861 5863 5865 5867 5869 5870 5872 5875 5876 5878 5881 5883 5885 5887 5887 5887 5888 5889 5890 5891 5893 5895 5896 5898 5898
5607 5615 5622 5629 5637 5646 5653 5661 5669 5673 5678 5685 5688 5692 5696 5702 5707 5712 5717 5721 5725 5731 5735 5740 5745 5749 5753 5758 5761 5766 5770 5775 5782 5784 5785 5791 5794 5796 5799 5802 5807 5809 5811 5814 5816 5817 5817 5820 5824 5824 5826 5829 5833 5836 5838 5840 5842 5846 5850 5852 5852 5854 5856 5858 5861 5863 5865 5867 5869 5871 5872 5874 5877 5879 5881 5883 5884 5884 5886 5888 5889 5889 5891 5892 5894 5895 5896 5897
5600 5608 5615 5622 5629 5638 5646 5654 5662 5667 5672 5679 5684 5688 5691 5696 5701 5706 5711 5715 5721 5726 5730 5735 5740 5744 5748 5753 5757 5761 5766 5771 5777 5780 5782 5787 5789 5792 5795 5798 5803 5806 5807 5810 5813 5815 5815 5818 5820 5822 5824 5826 5829 5833 5835 5837 5840 5844 5848 5849 5848 5851 5853 5855 5859 5861 5863 5866 5867 5868 5870 5873 5875 5876 5878 5880 5882 5884 5886 5887 5888 5889 5890 5892 5893 5893 5895 5896
5592 5600 5608 5616 5623 5631 5639 5647 5657 5664 5668 5673 5678 5682 5686 5690 5696 5701 5706 5711 5716 5720 5725 5731 5735 5739 5742 5747 5753 5757 5763 5769 5774 5777 5779 5783 5785 5787 5791 5794 5798 5802 5804 5807 5810 5811 5812 5815 5817 5819 5822 5823 5826 5830 5832 5834 5837 5841 5845 5845 5845 5847 5850 5852 5856 5858 5861 5863 5864 5866 5869 5870 5871 5874 5877 5879 5880 5882 5884 5885 5886 5888 5889 5890 5891 5892 5893 5894
5585 5593 5601 5610 5617 5625 5634 5641 5650 5658 5663 5669 5673 5678 5682 5686 5691 5696 5701 5707 5711 5715 5721 5726 5730 5733 5737 5743 5749 5754 5763 5767 5770 5774 5776 5779 5782 5785 5788 5791 5795 5799 5802 5804 5807 5808 5810 5812 5813 5816 5819 5821 5823 5826 5828 5830 5834 5838 5841 5841 5842 5844 5846 5849 5853 5856 5858 5860 5862 5864 5866 5867 5869 5872 5875 5877 5879 5881 5882 5884 5885 5886 5887 5888 5889 5890 5891 5893
5578 5586 5594 5603 5611 5620 5629 5637 5645 5652 5658 5666 5670 5674 5678 5682 5686 5691 5696 5702 5706 5711 5716 5721 5725 5728 5733 5739 5744 5752 5761 5762 5764 5769 5771 5774 5778 5782 5785 5788 5791 5795 5799 5801 5804 5806 5808 5809 5810 5813 5816 5817 5819 5823 5825 5828 5831 5834 5837 5838 5839 5841 5843 5846 5850 5853 5855 5856 5859 5861 5862 5864 5866 5870 5873 5875 5877 5879 5881 5882 5884 5885 5886 5886 5888 5889 5890 5891
5571 5579 5587 5596 5605 5614 5623 5632 5640 5646 5653 5662 5667 5670 5674 5678 5682 5686 5691 5697 5702 5707 5713 5717 5720 5724 5730 5735 5742 5752 5757 5756 5757 5762 5766 5770 5774 5778 5782 5786 5788 5792 5795 5798 5801 5803 5804 5805 5807 5810 5812 5813 5816 5819 5822 5825 5827 5830 5833 5834 5836 5838 5840 5843 5847 5850 5852 5853 5855 5858 5860 5861 5864 5868 5871 5873 5875 5876 5878 5880 5881 5883 5884 5885 5886 5887 5889 5889
5564 5572 5580 5588 5599 5609 5617 5626 5635 5641 5648 5656 5662 5665 5670 5674 5678 5683 5687 5692 5698 5704 5710 5713 5716 5721 5726 5731 5741 5750 5750 5748 5752 5757 5762 5767 5770 5775 5779 5782 5785 5789 5793 5795 5798 5800 5800 5802 5804 5807 5808 5811 5813 5815 5818 5821 5823 5826 5828 5830 5833 5835 5837 5841 5844 5848 5849 5850 5852 5855 5857 5859 5863 5867 5868 5869 5872 5873 5875 5877 5879 5881 5882 5884 5885 5886 5887 5888
5557 5565 5573 5581 5591 5602 5612 5621 5630 5636 5644 5652 5657 5661 5666 5670 5674 5679 5683 5688 5693 5699 5706 5710 5714 5718 5721 5729 5739 5743 5742 5743 5747 5753 5759 5762 5766 5771 5774 5779 5782 5785 5789 5792 5794 5794 5795 5798 5801 5803 5805 5808 5810 5811 5813 5816 5818 5822 5825 5826 5829 5831 5834 5838 5841 5844 5846 5847 5849 5851 5854 5858 5863 5865 5864 5867 5869 5870 5872 5875 5877 5878 5880 5882 5883 5884 5885 5887
5550 5558 5566 5574 5584 5595 5606 5616 5626 5634 5642 5650 5653 5656 5661 5665 5670 5674 5679 5685 5690 5696 5704 5706 5709 5712 5717 5726 5733 5734 5736 5739 5744 5750 5755 5759 5763 5767 5770 5775 5778 5781 5784 5787 5789 5790 5792 5795 5797 5799 5802 5805 5807 5808 5810 5812 5815 5819 5820 5823 5826 5828 5832 5835 5838 5841 5843 5844 5846 5848 5851 5856 5860 5860 5861 5864 5867 5869 5871 5872 5874 5876 5877 5879 5881 5882 5883 5885
5542 5550 5559 5567 5577 5588 5598 5609 5620 5630 5638 5645 5648 5650 5656 5661 5665 5671 5675 5682 5687 5693 5701 5702 5703 5707 5712 5720 5724 5726 5730 5737 5743 5747 5752 5757 5760 5764 5768 5772 5775 5778 5779 5781 5784 5786 5788 5791 5793 5796 5798 5801 5803 5805 5807 5808 5811 5814 5816 5819 5822 5825 5829 5831 5834 5837 5839 5841 5843 5844 5848 5854 5855 5855 5858 5862 5864 5866 5868 5870 5872 5874 5876 5877 5878 5880 5881 5882
5534 5543 5552 5561 5571 5580 5591 5602 5613 5624 5632 5638 5642 5646 5652 5656 5661 5667 5672 5679 5684 5689 5695 5696 5697 5703 5709 5713 5716 5719 5726 5735 5740 5743 5749 5754 5756 5760 5764 5769 5772 5773 5774 5777 5780 5783 5784 5787 5790 5792 5795 5797 5800 5803 5803 5804 5807 5809 5813 5816 5819 5822 5825 5827 5830 5834 5835 5837 5839 5841 5846 5850 5851 5852 5855 5859 5862 5864 5865 5867 5869 5871 5873 5875 5876 5877 5878 5880
5527 5535 5545 5554 5564 5573 5584 5595 5606 5617 5625 5630 5636 5641 5647 5653 5659 5665 5669 5675 5679 5683 5690 5693 5695 5699 5701 5705 5710 5717 5726 5733 5735 5739 5745 5749 5751 5755 5759 5763 5766 5768 5769 5773 5776 5778 5781 5783 5786 5789 5792 5794 5797 5800 5800 5802 5804 5807 5810 5812 5815 5819 5822 5823 5826 5830 5832 5834 5836 5838 5843 5847 5848 5850 5853 5856 5859 5860 5862 5864 5866 5867 5869 5871 5873 5874 5875 5878
5521 5529 5537 5547 5557 5567 5577 5588 5599 5610 5618 5624 5630 5637 5643 5649 5654 5658 5662 5668 5672 5678 5684 5685 5686 5687 5690 5701 5711 5718 5725 5729 5731 5735 5740 5744 5748 5752 5756 5760 5761 5763 5764 5767 5772 5774 5777 5780 5783 5785 5788 5791 5794 5797 5799 5801 5803 5804 5806 5809 5811 5815 5818 5820 5823 5826 5829 5832 5834 5835 5840 5844 5846 5847 5849 5853 5855 5857 5859 5860 5862 5864 5866 5869 5870 5871 5873 5875
5515 5521 5530 5540 5550 5560 5570 5582 5592 5602 5612 5618 5625 5634 5640 5643 5647 5650 5654 5658 5660 5665 5669 5671 5675 5681 5692 5706 5713 5716 5721 5723 5726 5730 5735 5741 5746 5748 5753 5757 5757 5758 5759 5763 5768 5771 5774 5777 5779 5783 5787 5790 5792 5794 5797 5799 5800 5800 5802 5805 5808 5811 5814 5817 5820 5822 5825 5828 5830 5833 5838 5842 5843 5844 5846 5849 5852 5854 5855 5856 5858 5861 5864 5866 5868 5869 5870 5873
5507 5514 5523 5532 5543 5554 5564 5574 5585 5595 5605 5611 5619 5628 5628 5625 5627 5631 5641 5650 5656 5663 5667 5672 5679 5685 5696 5705 5708 5710 5714 5717 5721 5726 5731 5737 5741 5744 5748 5751 5751 5752 5755 5761 5766 5769 5772 5774 5778 5783 5787 5788 5788 5790 5793 5794 5795 5795 5797 5800 5803 5807 5811 5814 5816 5818 5821 5824 5827 5830 5834 5838 5839 5840 5841 5844 5847 5849 5850 5852 5855 5858 5861 5863 5864 5866 5867 5869
5500 5507 5515 5525 5536 5547 5557 5568 5578 5588 5598 5606 5613 5618 5614 5612 5618 5628 5640 5649 5657 5666 5670 5675 5681 5684 5692 5700 5702 5704 5708 5712 5716 5720 5725 5730 5734 5738 5742 5745 5747 5748 5753 5759 5762 5765 5767 5772 5778 5782 5783 5784 5784 5786 5788 5789 5791 5792 5794 5795 5798 5802 5806 5809 5811 5814 5817 5820 5823 5826 5829 5834 5836 5836 5837 5840 5843 5845 5847 5849 5852 5854 5857 5859 5860 5862 5864 5866
5493 5501 5510 5519 5529 5540 5551 5561 5572 5581 5591 5600 5606 5611 5614 5618 5630 5644 5651 5654 5660 5665 5667 5672 5676 5680 5689 5694 5694 5696 5702 5708 5711 5714 5719 5724 5729 5734 5738 5741 5745 5748 5752 5755 5757 5760 5764 5771 5777 5778 5778 5779 5780 5782 5784 5785 5787 5790 5791 5793 5795 5798 5802 5804 5807 5810 5813 5815 5819 5821 5825 5830 5833 5832 5833 5835 5838 5842 5844 5846 5849 5850 5852 5855 5858 5860 5861 5862
5488 5496 5505 5513 5523 5534 5544 5554 5565 5574 5582 5590 5597 5605 5613 5619 5629 5640 5647 5653 5659 5660 5661 5665 5670 5676 5683 5685 5686 5691 5699 5705 5708 5712 5718 5723 5728 5731 5734 5738 5741 5744 5748 5752 5756 5760 5765 5771 5773 5773 5774 5775 5776 5778 5780 5782 5785 5787 5789 5791 5793 5795 5797 5800 5803 5806 5808 5811 5814 5817 5821 5826 5828 5828 5828 5830 5835 5838 5840 5843 5845 5846 5849 5852 5855 5856 5857 5859
5484 5492 5499 5507 5517 5526 5537 5548 5556 5562 5572 5584 5595 5605 5613 5617 5625 5634 5640 5646 5651 5653 5656 5661 5665 5670 5676 5680 5683 5688 5695 5701 5706 5710 5715 5721 5725 5727 5731 5735 5737 5740 5746 5751 5755 5758 5764 5769 5769 5770 5771 5772 5773 5775 5776 5779 5782 5784 5787 5789 5790 5792 5794 5797 5800 5802 5804 5806 5810 5813 5816 5821 5824 5823 5825 5827 5830 5835 5837 5839 5842 5844 5847 5850 5851 5852 5854 5856
5479 5486 5494 5502 5509 5520 5531 5537 5541 5553 5569 5581 5591 5602 5609 5615 5622 5631 5636 5640 5644 5648 5652 5655 5659 5663 5669 5674 5677 5684 5691 5696 5700 5705 5710 5716 5721 5725 5728 5730 5732 5737 5743 5747 5750 5754 5760 5763 5764 5766 5767 5768 5770 5771 5774 5776 5779 5781 5784 5786 5787 5789 5791 5793 5795 5798 5799 5801 5805 5809 5811 5816 5821 5821 5823 5825 5826 5831 5834 5835 5838 5841 5843 5845 5847 5849 5851 5853
5475 5481 5489 5496 5504 5514 5519 5522 5535 5553 5565 5575 5587 5598 5606 5612 5617 5623 5632 5636 5636 5640 5645 5649 5653 5658 5663 5666 5669 5678 5684 5687 5692 5698 5704 5710 5715 5719 5722 5725 5730 5735 5739 5742 5746 5750 5754 5758 5760 5762 5763 5765 5766 5768 5771 5773 5775 5778 5781 5783 5783 5785 5788 5789 5791 5793 5795 5797 5801 5805 5807 5811 5817 5819 5820 5821 5822 5826 5830 5832 5835 5837 5839 5842 5844 5846 5848 5850
5470 5476 5484 5490 5497 5502 5505 5517 5535 5546 5554 5569 5583 5594 5603 5610 5612 5617 5626 5628 5626 5633 5640 5643 5649 5655 5659 5663 5668 5673 5676 5680 5686 5692 5698 5704 5708 5712 5716 5721 5726 5731 5734 5736 5740 5746 5751 5754 5756 5758 5760 5761 5763 5766 5769 5770 5772 5775 5777 5778 5779 5781 5783 5785 5787 5788 5791 5794 5797 5801 5803 5805 5811 5815 5815 5817 5818 5822 5826 5828 5831 5833 5835 5838 5841 5843 5846 5847
5465 5473 5479 5485 5491 5499 5510 5524 5531 5538 5555 5573 5584 5593 5601 5605 5608 5612 5615 5614 5615 5625 5632 5638 5647 5653 5656 5660 5664 5669 5675 5680 5684 5688 5694 5699 5702 5706 5711 5717 5723 5727 5731 5734 5739 5745 5748 5750 5753 5755 5757 5759 5762 5765 5766 5767 5769 5772 5774 5775 5776 5778 5779 5781 5783 5784 5787 5789 5792 5796 5799 5799 5804 5811 5812 5813 5815 5818 5822 5825 5827 5829 5832 5834 5837 5839 5841 5844
5462 5468 5475 5482 5491 5502 5514 5523 5530 5545 5564 5576 5582 5591 5597 5600 5602 5606 5606 5603 5608 5620 5627 5634 5642 5645 5648 5654 5657 5664 5671 5675 5680 5686 5691 5693 5698 5703 5708 5714 5719 5722 5726 5732 5737 5741 5743 5746 5750 5752 5755 5758 5760 5762 5763 5764 5767 5769 5771 5771 5773 5774 5775 5777 5778 5780 5781 5783 5787 5791 5793 5794 5797 5806 5809 5809 5812 5815 5818 5821 5823 5826 5829 5830 5833 5835 5837 5840
5459 5466 5472 5480 5487 5495 5504 5514 5530 5548 5561 5568 5576 5584 5589 5590 5590 5590 5590 5591 5600 5614 5623 5629 5635 5637 5642 5647 5651 5658 5664 5668 5675 5681 5684 5689 5694 5700 5704 5709 5712 5716 5721 5727 5731 5735 5739 5742 5745 5748 5752 5755 5756 5757 5759 5761 5763 5765 5767 5768 5769 5770 5772 5773 5775 5777 5776 5779 5784 5787 5789 5790 5790 5799 5806 5806 5809 5812 5815 5818 5820 5822 5825 5827 5829 5832 5834 5836
5458 5464 5469 5476 5483 5490 5497 5507 5521 5537 5550 5559 5568 5575 5579 5580 5578 5575 5576 5585 5599 5609 5616 5623 5629 5633 5638 5643 5649 5655 5659 5664 5669 5673 5678 5685 5689 5692 5695 5699 5704 5710 5715 5720 5724 5730 5734 5737 5741 5745 5748 5750 5751 5753 5755 5757 5759 5761 5762 5764 5765 5766 5768 5769 5771 5772 5772 5776 5783 5785 5786 5786 5785 5793 5803 5805 5806 5809 5811 5814 5816 5818 5821 5824 5826 5828 5830 5832
5456 5462 5468 5476 5484 5492 5500 5509 5521 5532 5543 5552 5559 5565 5568 5566 5565 5565 5569 5584 5595 5601 5609 5617 5623 5628 5635 5643 5649 5653 5657 5661 5665 5671 5678 5683 5686 5691 5695 5698 5703 5707 5712 5717 5722 5726 5730 5733 5738 5741 5743 5745 5747 5749 5751 5753 5754 5756 5758 5759 5760 5761 5763 5765 5767 5768 5770 5775 5780 5782 5783 5783 5782 5788 5798 5802 5803 5805 5808 5810 5812 5814 5817 5820 5822 5824 5826 5828
5455 5461 5469 5476 5482 5490 5501 5512 5523 5530 5537 5546 5552 5558 5558 5554 5552 5556 5566 5580 5590 5600 5611 5617 5623 5629 5634 5639 5643 5648 5655 5659 5663 5670 5676 5680 5684 5689 5693 5697 5702 5707 5713 5718 5720 5722 5725 5729 5733 5736 5739 5742 5744 5746 5748 5749 5751 5752 5754 5756 5757 5758 5759 5762 5765 5767 5770 5773 5776 5779 5780 5780 5782 5785 5792 5799 5801 5802 5804 5806 5808 5811 5813 5816 5819 5821 5823 5824
5454 5460 5467 5474 5481 5488 5497 5506 5516 5524 5532 5539 5544 5547 5548 5546 5548 5557 5569 5581 5593 5604 5611 5614 5620 5627 5631 5636 5641 5646 5651 5655 5661 5666 5669 5673 5677 5682 5687 5693 5699 5705 5711 5714 5716 5719 5722 5725 5730 5733 5735 5738 5740 5743 5745 5747 5749 5750 5752 5754 5755 5757 5758 5761 5764 5766 5768 5770 5772 5775 5776 5778 5782 5783 5788 5796 5799 5799 5801 5803 5805 5808 5810 5813 5815 5817 5818 5820
5453 5459 5465 5471 5476 5483 5493 5503 5512 5519 5526 5532 5536 5537 5536 5539 5548 5558 5569 5582 5592 5598 5604 5611 5617 5620 5624 5631 5638 5642 5646 5651 5658 5662 5665 5670 5674 5680 5687 5693 5698 5703 5706 5709 5714 5718 5722 5725 5729 5731 5733 5735 5737 5739 5741 5743 5745 5747 5749 5751 5753 5755 5757 5759 5761 5762 5764 5765 5766 5769 5772 5775 5779 5780 5783 5790 5796 5797 5798 5800 5803 5805 5807 5809 5811 5813 5814 5815
5451 5456 5463 5468 5472 5479 5489 5499 5507 5513 5520 5526 5529 5530 5533 5542 5553 5563 5572 5583 5589 5592 5599 5606 5609 5613 5618 5625 5630 5635 5642 5649 5654 5658 5663 5670 5675 5680 5686 5690 5695 5699 5703 5708 5712 5715 5719 5723 5726 5728 5730 5732 5734 5736 5738 5739 5741 5743 5745 5748 5751 5753 5754 5755 5757 5759 5760 5761 5763 5766 5769 5771 5774 5776 5778 5784 5791 5794 5795 5796 5799 5801 5804 5806 5807 5809 5810 5812
5451 5455 5460 5465 5472 5479 5486 5496 5505 5511 5518 5522 5525 5532 5543 5553 5561 5568 5575 5580 5585 5589 5593 5595 5599 5606 5613 5618 5624 5630 5637 5644 5649 5654 5661 5666 5671 5677 5682 5686 5692 5697 5702 5706 5709 5712 5716 5719 5721 5723 5725 5728 5730 5732 5734 5736 5738 5740 5743 5746 5749 5750 5751 5753 5754 5755 5757 5758 5760 5763 5765 5768 5769 5770 5774 5778 5784 5790 5792 5793 5794 5797 5800 5802 5803 5805 5806 5808
5451 5456 5459 5463 5470 5478 5485 5496 5506 5511 5516 5521 5528 5538 5546 5551 5556 5563 5569 5573 5577 5581 5586 5590 5595 5603 5610 5616 5622 5629 5635 5639 5644 5652 5659 5663 5669 5676 5681 5685 5690 5694 5699 5702 5705 5709 5712 5715 5717 5719 5721 5723 5726 5728 5730 5732 5735 5738 5741 5743 5745 5746 5748 5749 5751 5752 5754 5755 5757 5760 5761 5763 5766 5768 5772 5775 5777 5783 5788 5790 5791 5792 5795 5797 5799 5801 5803 5804
5446 5453 5457 5461 5470 5477 5484 5495 5503 5508 5512 5517 5526 5533 5536 5540 5548 5557 5564 5568 5571 5575 5583 5591 5596 5601 5609 5618 5625 5630 5634 5639 5645 5651 5656 5662 5670 5675 5680 5684 5687 5691 5695 5698 5701 5705 5708 5710 5713 5716 5718 5720 5722 5724 5727 5730 5732 5734 5737 5738 5741 5743 5744 5746 5748 5750 5752 5753 5755 5756 5757 5760 5765 5768 5770 5771 5773 5776 5781 5785 5787 5788 5789 5792 5794 5797 5798 5799
5442 5448 5453 5459 5468 5475 5485 5496 5500 5501 5506 5516 5524 5529 5533 5540 5548 5555 5562 5566 5569 5575 5582 5590 5595 5600 5608 5617 5624 5628 5632 5637 5644 5650 5655 5661 5668 5672 5676 5680 5684 5688 5691 5693 5696 5700 5703 5706 5709 5712 5714 5716 5719 5722 5725 5727 5729 5731 5734 5736 5738 5740 5741 5743 5745 5747 5749 5750 5751 5752 5753 5759 5764 5765 5766 5767 5769 5770 5773 5777 5782 5784 5785 5786 5788 5790 5792 5793
5439 5445 5450 5457 5465 5474 5483 5488 5491 5496 5507 5516 5521 5525 5531 5539 5544 5550 5558 5563 5569 5576 5583 5589 5594 5600 5607 5612 5617 5623 5628 5633 5640 5646 5651 5657 5663 5668 5672 5676 5680 5684 5685 5688 5692 5695 5699 5702 5705 5708 5710 5714 5717 5719 5722 5723 5726 5728 5731 5733 5736 5737 5739 5740 5742 5744 5746 5747 5749 5749 5751 5758 5762 5762 5763 5764 5764 5766 5768 5770 5774 5778 5780 5780 5782 5783 5785 5787
5435 5442 5449 5455 5462 5470 5477 5480 5487 5497 5505 5509 5514 5520 5527 5532 5538 5545 5552 5558 5567 5574 5581 5586 5591 5597 5604 5609 5613 5619 5624 5630 5636 5642 5648 5654 5660 5666 5669 5672 5675 5678 5681 5685 5688 5691 5695 5698 5700 5703 5707 5710 5712 5715 5717 5719 5722 5724 5726 5729 5731 5732 5735 5736 5738 5741 5743 5744 5747 5747 5749 5756 5759 5758 5759 5760 5761 5762 5763 5764 5767 5770 5773 5774 5776 5777 5779 5781
5433 5442 5450 5456 5461 5467 5471 5476 5486 5493 5497 5503 5512 5518 5523 5527 5533 5540 5545 5552 5561 5568 5574 5580 5586 5592 5599 5605 5611 5616 5620 5627 5634 5639 5645 5651 5656 5660 5663 5667 5670 5672 5675 5679 5683 5687 5690 5692 5695 5699 5702 5704 5707 5710 5713 5715 5718 5720 5722 5724 5726 5728 5731 5733 5735 5738 5740 5743 5745 5745 5747 5753 5756 5755 5755 5756 5757 5758 5759 5760 5762 5763 5765 5767 5769 5771 5772 5774
5434 5441 5447 5453 5460 5466 5470 5475 5481 5486 5491 5500 5506 5510 5516 5522 5527 5534 5542 5548 5556 5562 5569 5576 5584 5591 5598 5603 5610 5616 5621 5626 5630 5636 5642 5647 5651 5655 5658 5661 5665 5668 5672 5677 5681 5684 5685 5686 5690 5693 5695 5697 5701 5704 5708 5712 5714 5716 5718 5719 5721 5724 5727 5730 5733 5735 5738 5742 5743 5742 5745 5750 5753 5753 5752 5751 5752 5754 5755 5756 5757 5758 5758 5760 5762 5764 5766 5767
5432 5437 5442 5449 5456 5462 5469 5477 5482 5485 5490 5497 5503 5508 5514 5519 5525 5534 5541 5548 5555 5560 5566 5574 5583 5591 5597 5601 5607 5614 5619 5624 5628 5632 5638 5643 5647 5651 5654 5658 5661 5666 5672 5676 5678 5679 5680 5682 5686 5687 5689 5694 5698 5703 5708 5710 5710 5711 5713 5716 5719 5722 5725 5728 5731 5733 5736 5739 5739 5740 5743 5746 5748 5750 5748 5747 5748 5749 5750 5752 5753 5753 5753 5754 5756 5758 5759 5761
5425 5428 5432 5439 5449 5459 5467 5474 5478 5482 5487 5494 5499 5504 5510 5515 5523 5532 5539 5545 5552 5557 5563 5571 5579 5585 5590 5595 5601 5607 5614 5620 5625 5630 5634 5638 5643 5647 5652 5656 5659 5663 5667 5669 5671 5674 5677 5679 5683 5686 5691 5696 5701 5705 5708 5708 5708 5711 5714 5715 5717 5720 5723 5726 5728 5730 5733 5734 5735 5739 5741 5741 5743 5745 5744 5744 5745 5746 5746 5747 5748 5748 5748 5749 5750 5752 5753 5755
5421 5423 5425 5430 5439 5449 5458 5464 5470 5477 5485 5492 5496 5501 5507 5513 5518 5525 5532 5541 5548 5553 5560 5568 5573 5578 5583 5589 5595 5601 5609 5616 5621 5627 5632 5637 5641 5646 5649 5653 5656 5660 5662 5663 5666 5670 5672 5675 5681 5686 5690 5694 5697 5700 5702 5704 5706 5709 5710 5711 5713 5716 5718 5721 5724 5727 5729 5729 5732 5736 5737 5737 5739 5739 5739 5740 5742 5742 5741 5741 5742 5742 5742 5743 5744 5746 5747 5748
5418 5424 5431 5436 5440 5446 5453 5461 5469 5476 5484 5492 5496 5500 5504 5509 5514 5520 5526 5535 5544 5550 5554 5561 5568 5575 5582 5588 5593 5598 5603 5609 5616 5622 5627 5632 5637 5642 5645 5648 5652 5655 5657 5659 5663 5666 5670 5674 5680 5683 5685 5689 5691 5693 5695 5698 5700 5701 5703 5705 5707 5710 5713 5717 5721 5722 5723 5725 5729 5732 5733 5734 5734 5734 5734 5735 5737 5738 5737 5737 5738 5738 5738 5738 5738 5739 5740 5740
5416 5423 5430 5437 5445 5453 5461 5468 5473 5477 5482 5488 5493 5497 5501 5506 5512 5519 5524 5530 5537 5544 5550 5557 5565 5573 5581 5586 5590 5594 5598 5604 5610 5616 5622 5627 5632 5636 5639 5643 5648 5651 5654 5656 5660 5664 5667 5671 5675 5678 5681 5684 5686 5688 5691 5693 5694 5695 5697 5700 5703 5706 5711 5714 5716 5717 5717 5722 5726 5727 5728 5730 5730 5731 5730 5729 5730 5733 5733 5733 5734 5734 5733 5733 5733 5733 5733 5734
5414 5420 5426 5433 5442 5451 5459 5464 5468 5473 5479 5484 5488 5494 5500 5505 5510 5517 5523 5527 5532 5537 5546 5556 5565 5572 5578 5583 5587 5591 5598 5604 5610 5614 5619 5622 5626 5630 5634 5638 5642 5646 5649 5652 5656 5660 5663 5665 5669 5673 5675 5677 5680 5683 5686 5687 5689 5691 5692 5696 5700 5704 5707 5709 5710 5711 5713 5719 5722 5721 5723 5726 5726 5726 5726 5725 5725 5727 5728 5729 5728 5727 5726 5726 5726 5727 5728 5729
5411 5419 5427 5434 5442 5449 5454 5459 5464 5469 5473 5478 5484 5491 5497 5503 5509 5514 5520 5526 5532 5538 5544 5553 5563 5570 5576 5580 5585 5591 5598 5604 5611 5617 5620 5621 5625 5628 5630 5633 5637 5639 5643 5646 5649 5653 5656 5658 5662 5666 5668 5671 5676 5678 5680 5682 5684 5684 5687 5694 5699 5701 5702 5704 5706 5707 5710 5715 5716 5716 5719 5723 5722 5721 5721 5720 5719 5720 5722 5723 5721 5720 5719 5719 5720 5721 5722 5724
5411 5418 5425 5432 5439 5446 5451 5457 5461 5465 5470 5477 5484 5489 5494 5501 5508 5512 5517 5523 5530 5538 5545 5552 5559 5566 5572 5577 5583 5590 5596 5603 5609 5615 5618 5622 5625 5627 5629 5632 5634 5635 5639 5642 5645 5648 5650 5653 5658 5661 5664 5668 5672 5673 5676 5678 5677 5679 5687 5695 5697 5697 5699 5700 5701 5704 5706 5709 5710 5712 5716 5717 5714 5714 5716 5715 5714 5715 5716 5716 5715 5715 5715 5715 5717 5717 5718 5720